Kinloss, United Kingdom

4:39 PM BST on May 21, 2018 (GMT +0100)
Kinloss Air Base

Weather History for EGQK - October, 2012

Change the Weather History Date:

Tuesday, October 16, 2012

  Actual Average Record
Temperature  
Mean Temperature 34 °F -  
Max Temperature 43 °F 51 °F 64 °F (2005)
Min Temperature 26 °F 39 °F 26 °F (2012)
Degree Days  
Heating Degree Days 30    
Moisture  
Dew Point 33 °F    
Average Humidity 91    
Maximum Humidity 100    
Minimum Humidity 81    
Precipitation  
Precipitation 0.01 in 0.08 in - ()
Sea Level Pressure  
Sea Level Pressure 29.39 in    
Wind  
Wind Speed 4 mph ()    
Max Wind Speed 12 mph    
Max Gust Speed -    
Visibility 6.3 miles    
Events Fog    
Averages and records for this station are not official NWS values.
T = Trace of Precipitation, MM = Missing Value Source: Averaged Metar Reports

Daily Weather History Graph

Daily Weather History Graph

Search for Another Location

Airport or City:

Astronomy

Oct. 16, 2012 Rise Set
Actual Time 7:51 AM BST 6:06 PM BST
Civil Twilight 7:12 AM BST 6:46 PM BST
Nautical Twilight 6:27 AM BST 7:31 PM BST
Astronomical Twilight 5:41 AM BST 8:16 PM BST
Moon 9:22 AM BST (10/16) 6:10 PM BST (10/16)
Length of Visible Light 11h 34m
Length of Day
10h 15m
New Moon, 1% of the Moon is Illuminated
Oct 16
New Moon
Oct 22
First Quarter
Oct 29
Full
Nov 7
Last Quarter
Nov 13
New

Hourly Weather History & Observations

Time (BST) Temp. Windchill Dew Point Humidity Pressure Visibility Wind Dir Wind Speed Gust Speed Precip Events Conditions
12:50 AM 30 °F - 29 °F 93% 29.43 in 16 mi Calm Calm - -  
12:50 AM 30.2 °F - 28.4 °F 93% 29.42 in 6.2 mi Calm Calm - N/A   Unknown
1:50 AM 30.2 °F - 28.4 °F 93% 29.42 in 6.2 mi SSE 1.2 mph - N/A   Unknown
2:50 AM 30.2 °F - 28.4 °F 93% 29.39 in 6.2 mi ESE 1.2 mph - N/A   Partly Cloudy
3:50 AM 29 °F - 28 °F 94% 29.38 in 34 mi SSE 3.5 mph - -   Mostly Cloudy
3:50 AM 28.4 °F 24.6 °F 28.4 °F 100% 29.36 in 6.2 mi SSE 3.5 mph - N/A   Mostly Cloudy
4:50 AM 28.4 °F - 26.6 °F 93% 29.36 in 6.2 mi NE 2.3 mph - N/A   Mostly Cloudy
5:50 AM 30.2 °F 26.7 °F 28.4 °F 93% 29.36 in 6.2 mi SW 3.5 mph - N/A   Mostly Cloudy
6:50 AM 29 °F - 28 °F 92% 29.36 in 34 mi South 2.3 mph - -  
6:50 AM 28.4 °F - 28.4 °F 100% 29.36 in 6.2 mi South 2.3 mph - N/A   Scattered Clouds
7:50 AM 28.4 °F 24.6 °F 28.4 °F 100% 29.36 in 6.2 mi SW 3.5 mph - N/A   Unknown
8:50 AM 30.2 °F 24.3 °F 30.2 °F 100% 29.36 in 6.2 mi WSW 5.8 mph - N/A   Scattered Clouds
9:50 AM 32 °F - 31 °F 97% 29.37 in 22 mi SW 5.8 mph - -   Scattered Clouds
9:50 AM 32.0 °F 26.4 °F 32.0 °F 100% 29.36 in - SW 5.8 mph - N/A   Clear
10:13 AM 33.8 °F 29.6 °F 32.0 °F 93% 29.36 in 6.2 mi SSW 4.6 mph - N/A Fog Scattered Clouds
10:50 AM 35.6 °F 31.7 °F 33.8 °F 93% 29.36 in 0.6 mi SW 4.6 mph - N/A Fog Fog
11:02 AM 35.6 °F 30.7 °F 35.6 °F 100% 29.36 in 0.4 mi SW 5.8 mph - N/A Fog Fog
11:50 AM 39.2 °F 33.6 °F 37.4 °F 93% 29.36 in 3.7 mi SW 8.1 mph - N/A Fog Fog
12:50 PM 40 °F - 38 °F 91% 29.39 in 13 mi SW 9.2 mph - -   Mostly Cloudy
12:50 PM 39.2 °F 33.0 °F 39.2 °F 100% 29.39 in 6.2 mi SW 9.2 mph - N/A   Mostly Cloudy
1:50 PM 41.0 °F 34.7 °F 37.4 °F 87% 29.39 in 6.2 mi WSW 10.4 mph - N/A   Mostly Cloudy
2:50 PM 41.0 °F 35.2 °F 37.4 °F 87% 29.39 in 6.2 mi SW 9.2 mph - N/A   Mostly Cloudy
3:50 PM 42 °F - 38 °F 81% 29.40 in 25 mi WSW 11.5 mph - -   Scattered Clouds
3:50 PM 42.8 °F 36.6 °F 37.4 °F 81% 29.39 in 6.2 mi WSW 11.5 mph - N/A   Mostly Cloudy
4:50 PM 42.8 °F 37.5 °F 39.2 °F 87% 29.39 in 6.2 mi SW 9.2 mph - N/A   Overcast
5:50 PM 42.8 °F 37.5 °F 37.4 °F 81% 29.39 in 6.2 mi WSW 9.2 mph - N/A   Scattered Clouds
6:50 PM 38 °F - 34 °F 81% 29.42 in 34 mi SSW 4.6 mph - -   Scattered Clouds
6:50 PM 39.2 °F 35.9 °F 33.8 °F 81% 29.42 in 6.2 mi SSW 4.6 mph - N/A   Mostly Cloudy
7:50 PM 37.4 °F 32.8 °F 33.8 °F 87% 29.42 in 6.2 mi SW 5.8 mph - N/A   Scattered Clouds
8:50 PM 37.4 °F 31.4 °F 33.8 °F 87% 29.44 in 6.2 mi SW 8.1 mph - N/A   Mostly Cloudy
9:50 PM 37 °F - 33 °F 82% 29.47 in 25 mi SW 5.8 mph - -   Mostly Cloudy
9:50 PM 37.4 °F 32.8 °F 33.8 °F 87% 29.44 in 6.2 mi SW 5.8 mph - N/A   Mostly Cloudy
10:50 PM 35.6 °F 30.7 °F 32.0 °F 87% 29.47 in 6.2 mi SW 5.8 mph - N/A   Scattered Clouds
11:50 PM 35.6 °F 29.9 °F 32.0 °F 87% 29.47 in 6.2 mi SW 6.9 mph - N/A   Unknown